Torna al catalogo

SITRO-AIS-28

AttivoComunicazioniPO
NORAD 59071·PAYLOAD·🇷🇺 Russia
Questo nome del satellite non è ancora stato confermato da fonti ufficiali.

Lanciato Feb 29, 2024 da Vostochny Cosmodrome

Loading…

Prossimi Passaggi (prossime 24 ore)

TLE

AggiornatoSource: Space-Track

Epoca: Sep 14, 2026, 12:57 UTC

1 59071U 24039U   26257.53964799  .00002875  00000-0  22110-3 0  9995
2 59071  95.3822 296.7135 0143128  15.2616 345.2858 14.94288365138081

Traccia SITRO-AIS-28 in tempo reale con AllMySat

Download on the App Store